"Pseudo-MPEC" for C3LV2D2

Created 2020 Oct 20 2:07:08 UT using Find_Orb

Click here for an explanation of pseudo-MPECs

 
 Astrometry: 
     C3LV2D2  C2020 10 18.11807520 57 02.67 -07 21 05.5    ~AI3q 20.51GVNEOCPG96
     C3LV2D2  C2020 10 18.12374820 57 04.96 -07 21 02.4    ~AI3q 20.66GVNEOCPG96
     C3LV2D2  C2020 10 18.12939520 57 07.20 -07 20 59.1    ~AI3q 20.80GVNEOCPG96
     C3LV2D2  C2020 10 18.13503420 57 09.41 -07 20 55.3    ~AI3q 20.67GVNEOCPG96
     C3LV2D2 KC2020 10 18.21122720 57 39.68 -07 20 10.3    ~AI5M 20.85GVNEOCPI52
     C3LV2D2 KC2020 10 18.21276020 57 40.23 -07 20 09.2    ~AI5M 20.65GVNEOCPI52
     C3LV2D2 KC2020 10 18.21429520 57 40.85 -07 20 08.0    ~AI5M 21.34GVNEOCPI52
     C3LV2D2 KC2020 10 18.21582920 57 41.45 -07 20 07.4    ~AI5M 20.42GVNEOCPI52
     C3LV2D2 KC2020 10 18;6Y2o=/gi[w%5Xs/^)Mn@xCE,,^$=o)3+cyZ/g#DAstrometry?)L01
     C3LV2D2 KC2020 10 183wVB5redacted;_J)ZY/3=3*fclickq=qhere4qqH9K$X.8/d4D$L01
     C3LV2D2 KC2020 10 18^M^;-qJti7YUbvMvGxx'7J,I2xXw2!K)9fk0jeyfor[DUDu\tBZsL01
     C3LV2D2 KC2020 10 18Jrw0u/.T`@0aexplanationk:T1+e!J]IM'D/U@jNj%T7ibkO)7NL01
     C3LV2D2 KC2020 10 19.08554221 03 32.53 -07 11 32.7    ~AJ2M 20.82GVNEOCPI52
     C3LV2D2 KC2020 10 19.08673021 03 32.97 -07 11 31.8    ~AJ2M 20.38GVNEOCPI52
     C3LV2D2 KC2020 10 19.08791721 03 33.45 -07 11 31.1    ~AJ2M 20.70GVNEOCPI52

Station data:
(G96) Mt. Lemmon Survey  (N32.442754 W110.788720)  US/Arizona.  Observers T.
   A. Pruyne, B. M. Africano, E. J. Christensen, G. A. Farneth, D. C. Fuls,
   A. R. Gibbs, A. D. Grauer, H. Gröller, J. A. Johnson, R. A. Kowalski, S.
   M. Larson, G. J. Leonard, D. Rankin, R. L. Seaman, F. C. Shelly. 1.5-m
   reflector + 10K CCD.
(I52) Steward Observatory, Mt. Lemmon Station  (N32.442547 W110.788920)
   US/Arizona.  Observers T. A. Pruyne, B. M. Africano, E. J. Christensen, G.
   A. Farneth, D. C. Fuls, A. R. Gibbs, A. D. Grauer, H. Gröller, J. A.
   Johnson, R. A. Kowalski, S. M. Larson, G. J. Leonard, D. Rankin, R. L.
   Seaman, F. C. Shelly. 1.0-m reflector + CCD.
(L01) Višnjan Observatory, Tičan  (N45.290900 E13.749300)  Croatia.
   Observers K. Korlević, E. Pettarin. Measurer E. Pettarin. 1.0-m f/2.9
   reflector + CCD.

Orbital elements:  C3LV2D2
   Perihelion 2020 Jul 27.082400 +/- 0.718 TT =  1:58:39 (JD 2459057.582400)
Epoch 2020 Oct 19.0 TT = JDT 2459141.5   Earth MOID: 0.0416   Ve: 0.0606
M  69.70397677 +/- 1.5              (J2000 ecliptic)          AutoNEOCP
n   0.83062405 +/- 0.0116           Peri.   33.16334 +/- 1.5
a   1.12081270 +/- 0.0104           Node   236.05462 +/- 0.51
e   0.3025129 +/- 0.00675           Incl.    3.02218 +/- 0.06
P   1.19/433.40d           H 21.8   G  0.15   U  9.7  
q 0.78175233 +/- 0.00646    Q 1.45987308 +/- 0.0194
From 15 observations 2020 Oct. 18-19 (23.3 hr); mean residual 0".27
Residuals in arcseconds: 
201018 G96  .34-  .10+    201018 I52  .33-  .12-    201018 L01  .52+  .46+    
201018 G96  .28+  .14-    201018 I52  .19-  .16+    201018 L01  .48-  .02+    
201018 G96  .32+  .18-    201018 I52  .35-  .17-    201019 I52  .02+  .28-    
201018 G96  .05-  .28+    201018 L01  .02+  .17-    201019 I52  .20-  .09-    
201018 I52  .56+  .29-    201018 L01  .03-  .35+    201019 I52  .18+  .10-    

Ephemerides (geocentric):
Date (UTC) HH   RA              Dec         delta   r     elong  mag " sig PA
---- -- -- --  -------------   -----------  ------ ------ -----  --- ---- ---
2020 10 20 02  21 10 00.153   -07 01 09.95  .24926 1.1085 110.7 21.1 .608 157
2020 10 20 03  21 10 16.057   -07 00 44.74  .24949 1.1087 110.7 21.1 .612 157
2020 10 20 04  21 10 31.938   -07 00 19.51  .24973 1.1089 110.7 21.1 .615 157
2020 10 20 05  21 10 47.796   -06 59 54.27  .24997 1.1092 110.7 21.1 .619 157
2020 10 20 06  21 11 03.630   -06 59 29.02  .25021 1.1094 110.8 21.1 .622 158
2020 10 20 07  21 11 19.441   -06 59 03.76  .25044 1.1096 110.8 21.1 .625 158
2020 10 20 08  21 11 35.229   -06 58 38.48  .25068 1.1098 110.8 21.1 .628 158
2020 10 20 09  21 11 50.994   -06 58 13.19  .25092 1.1100 110.8 21.1 .631 158
2020 10 20 10  21 12 06.736   -06 57 47.89  .25116 1.1102 110.9 21.1 .634 159
2020 10 20 11  21 12 22.455   -06 57 22.58  .25140 1.1104 110.9 21.1 .637 159
2020 10 20 12  21 12 38.152   -06 56 57.25  .25164 1.1106 110.9 21.1 .640 159
2020 10 20 13  21 12 53.825   -06 56 31.91  .25188 1.1108 110.9 21.1 .643 160
2020 10 20 14  21 13 09.475   -06 56 06.57  .25212 1.1110 111.0 21.1 .645 160
2020 10 20 15  21 13 25.102   -06 55 41.20  .25236 1.1112 111.0 21.1 .648 161
2020 10 20 16  21 13 40.707   -06 55 15.83  .25260 1.1114 111.0 21.1 .651 161
2020 10 20 17  21 13 56.288   -06 54 50.45  .25284 1.1116 111.0 21.1 .653 162
2020 10 20 18  21 14 11.847   -06 54 25.05  .25308 1.1118 111.0 21.1 .656 162
2020 10 20 19  21 14 27.384   -06 53 59.65  .25332 1.1120 111.1 21.1 .659 163
2020 10 20 20  21 14 42.897   -06 53 34.23  .25356 1.1123 111.1 21.1 .661 164
2020 10 20 21  21 14 58.388   -06 53 08.80  .25380 1.1125 111.1 21.1 .664 164
2020 10 20 22  21 15 13.857   -06 52 43.36  .25404 1.1127 111.1 21.1 .667 165
2020 10 20 23  21 15 29.303   -06 52 17.91  .25429 1.1129 111.2 21.1 .670 166
2020 10 21 00  21 15 44.726   -06 51 52.45  .25453 1.1131 111.2 21.1 .673 166
2020 10 21 01  21 16 00.127   -06 51 26.98  .25477 1.1133 111.2 21.1 .676 167
2020 10 21 02  21 16 15.506   -06 51 01.50  .25501 1.1135 111.2 21.1 .679 168
2020 10 21 03  21 16 30.862   -06 50 36.01  .25526 1.1137 111.3 21.1 .682 169
2020 10 21 04  21 16 46.195   -06 50 10.51  .25550 1.1139 111.3 21.1 .685 170
2020 10 21 05  21 17 01.507   -06 49 45.00  .25575 1.1141 111.3 21.1 .689 171
2020 10 21 06  21 17 16.796   -06 49 19.47  .25599 1.1143 111.3 21.1 .693 171
2020 10 21 07  21 17 32.063   -06 48 53.94  .25623 1.1145 111.3 21.1 .696 172
2020 10 21 08  21 17 47.308   -06 48 28.40  .25648 1.1147 111.4 21.1 .700 173
2020 10 21 09  21 18 02.530   -06 48 02.85  .25672 1.1149 111.4 21.1 .705 174
2020 10 21 10  21 18 17.731   -06 47 37.29  .25697 1.1151 111.4 21.1 .709 175
2020 10 21 11  21 18 32.909   -06 47 11.72  .25721 1.1153 111.4 21.1 .714 176
2020 10 21 12  21 18 48.066   -06 46 46.14  .25746 1.1155 111.4 21.1 .719 177
2020 10 21 13  21 19 03.200   -06 46 20.55  .25771 1.1158 111.5 21.1 .724 178
2020 10 21 14  21 19 18.313   -06 45 54.95  .25795 1.1160 111.5 21.1 .729 179
2020 10 21 15  21 19 33.403   -06 45 29.34  .25820 1.1162 111.5 21.1 .735   0
2020 10 21 16  21 19 48.472   -06 45 03.72  .25845 1.1164 111.5 21.1 .741   1
2020 10 21 17  21 20 03.519   -06 44 38.10  .25869 1.1166 111.6 21.1 .748   2
2020 10 21 18  21 20 18.544   -06 44 12.46  .25894 1.1168 111.6 21.1 .754   3
2020 10 21 19  21 20 33.547   -06 43 46.82  .25919 1.1170 111.6 21.1 .762   5
2020 10 21 20  21 20 48.529   -06 43 21.17  .25944 1.1172 111.6 21.1 .769   6
2020 10 21 21  21 21 03.489   -06 42 55.51  .25968 1.1174 111.6 21.1 .777   7
2020 10 21 22  21 21 18.427   -06 42 29.84  .25993 1.1176 111.7 21.1 .785   8
2020 10 21 23  21 21 33.344   -06 42 04.16  .26018 1.1178 111.7 21.1 .794   9
2020 10 22 00  21 21 48.239   -06 41 38.47  .26043 1.1180 111.7 21.1 .803  10
2020 10 22 01  21 22 03.113   -06 41 12.78  .26068 1.1182 111.7 21.1 .813  11